N8285B KEEN-KPYM

Flight info

Callsign N8285B
Flight time 0h 50m
Altitude VFR/055
Route PUT GDM
Aircraft PA24/L-DOV/C

Departure

Time 2026-04-25 00:23
Airport Dillant Hopkins Airport (KEEN)

Arrival

Time 2026-04-25 01:13
Airport Plymouth Municipal Airport (KPYM)
Time Latitude Longitude Altitude Speed Heading
2026-04-25 00:23 42.77558 -72.16975 5088 ft 91 kts 145°
2026-04-25 00:23 42.77086 -72.16417 5244 ft 90 kts 140°
2026-04-25 00:23 42.76592 -72.15837 5367 ft 95 kts 144°
2026-04-25 00:24 42.76073 -72.15263 5474 ft 99 kts 144°
2026-04-25 00:24 42.75524 -72.14667 5550 ft 105 kts 145°
2026-04-25 00:24 42.74945 -72.14038 5624 ft 109 kts 144°
2026-04-25 00:24 42.74329 -72.13357 5680 ft 121 kts 143°
2026-04-25 00:25 42.73631 -72.12575 5611 ft 138 kts 143°
2026-04-25 00:25 42.72860 -72.11715 5512 ft 148 kts 143°
2026-04-25 00:25 42.72076 -72.10811 5521 ft 147 kts 141°
2026-04-25 00:25 42.71300 -72.09909 5515 ft 147 kts 144°
2026-04-25 00:26 42.70488 -72.09058 5505 ft 147 kts 144°
2026-04-25 00:26 42.69704 -72.08171 5505 ft 147 kts 141°
2026-04-25 00:26 42.68942 -72.07242 5494 ft 148 kts 138°
2026-04-25 00:26 42.68240 -72.06222 5489 ft 148 kts 132°
2026-04-25 00:27 42.67468 -72.05322 5520 ft 145 kts 150°
2026-04-25 00:27 42.66547 -72.04766 5495 ft 146 kts 164°
2026-04-25 00:27 42.65584 -72.04384 5470 ft 147 kts 167°
2026-04-25 00:27 42.64594 -72.04027 5464 ft 145 kts 168°
2026-04-25 00:28 42.63636 -72.03667 5501 ft 143 kts 168°
2026-04-25 00:28 42.62659 -72.03338 5466 ft 145 kts 169°
2026-04-25 00:28 42.61692 -72.02987 5509 ft 142 kts 168°
2026-04-25 00:28 42.60719 -72.02705 5490 ft 144 kts 172°
2026-04-25 00:29 42.59745 -72.02415 5519 ft 142 kts 171°
2026-04-25 00:29 42.58771 -72.02142 5503 ft 144 kts 172°
2026-04-25 00:29 42.57786 -72.01882 5518 ft 143 kts 172°
2026-04-25 00:29 42.56807 -72.01627 5537 ft 144 kts 171°
2026-04-25 00:30 42.55819 -72.01347 5525 ft 145 kts 168°
2026-04-25 00:30 42.54856 -72.01032 5541 ft 144 kts 169°
2026-04-25 00:30 42.53878 -72.00707 5548 ft 145 kts 169°
2026-04-25 00:30 42.52900 -72.00380 5546 ft 145 kts 168°
2026-04-25 00:31 42.51926 -72.00034 5555 ft 145 kts 167°
2026-04-25 00:31 42.50955 -71.99657 5542 ft 145 kts 166°
2026-04-25 00:31 42.49987 -71.99280 5560 ft 144 kts 172°
2026-04-25 00:31 42.48996 -71.99190 5553 ft 144 kts 184°
2026-04-25 00:32 42.47995 -71.99246 5549 ft 143 kts 185°
2026-04-25 00:32 42.47008 -71.99248 5554 ft 142 kts 180°
2026-04-25 00:32 42.46015 -71.99088 5525 ft 145 kts 174°
2026-04-25 00:32 42.45038 -71.98892 5549 ft 143 kts 174°
2026-04-25 00:33 42.44049 -71.98710 5540 ft 144 kts 177°
2026-04-25 00:33 42.43051 -71.98606 5551 ft 143 kts 178°
2026-04-25 00:33 42.42063 -71.98424 5547 ft 144 kts 173°
2026-04-25 00:33 42.41075 -71.98192 5546 ft 144 kts 172°
2026-04-25 00:34 42.40093 -71.97916 5544 ft 144 kts 171°
2026-04-25 00:34 42.39114 -71.97636 5515 ft 144 kts 171°
2026-04-25 00:34 42.38130 -71.97342 5493 ft 144 kts 170°
2026-04-25 00:34 42.37167 -71.97054 5530 ft 141 kts 171°
2026-04-25 00:35 42.36201 -71.96811 5524 ft 141 kts 173°
2026-04-25 00:35 42.35238 -71.96605 5539 ft 140 kts 174°
2026-04-25 00:35 42.34277 -71.96337 5517 ft 142 kts 168°
2026-04-25 00:35 42.33325 -71.95992 5528 ft 141 kts 168°
2026-04-25 00:36 42.32382 -71.95632 5533 ft 141 kts 166°
2026-04-25 00:36 42.31447 -71.95240 5546 ft 140 kts 166°
2026-04-25 00:36 42.30829 -71.94973 5542 ft 141 kts 165°
2026-04-25 00:36 42.29575 -71.94435 5552 ft 141 kts 166°
2026-04-25 00:37 42.28642 -71.94075 5534 ft 142 kts 166°
2026-04-25 00:37 42.27697 -71.93685 5530 ft 142 kts 167°
2026-04-25 00:37 42.26752 -71.93323 5526 ft 141 kts 167°
2026-04-25 00:37 42.25805 -71.92959 5519 ft 142 kts 166°
2026-04-25 00:38 42.24865 -71.92564 5516 ft 141 kts 165°
2026-04-25 00:38 42.23931 -71.92143 5523 ft 141 kts 165°
2026-04-25 00:38 42.23009 -71.91731 5556 ft 139 kts 165°
2026-04-25 00:38 42.22076 -71.91346 5556 ft 140 kts 166°
2026-04-25 00:39 42.21149 -71.90980 5573 ft 140 kts 167°
2026-04-25 00:39 42.20226 -71.90606 5589 ft 140 kts 165°
2026-04-25 00:39 42.19290 -71.90192 5558 ft 143 kts 165°
2026-04-25 00:39 42.18346 -71.89781 5560 ft 142 kts 166°
2026-04-25 00:40 42.17399 -71.89403 5544 ft 142 kts 166°
2026-04-25 00:40 42.16461 -71.88997 5509 ft 140 kts 164°
2026-04-25 00:40 42.15539 -71.88598 5369 ft 140 kts 165°
2026-04-25 00:40 42.14602 -71.88204 5179 ft 141 kts 165°
2026-04-25 00:41 42.13662 -71.87817 4967 ft 141 kts 166°
2026-04-25 00:41 42.12728 -71.87421 4752 ft 141 kts 166°
2026-04-25 00:41 42.11783 -71.87098 4539 ft 140 kts 170°
2026-04-25 00:41 42.10828 -71.86804 4349 ft 140 kts 171°
2026-04-25 00:42 42.09884 -71.86562 4162 ft 140 kts 172°
2026-04-25 00:42 42.08934 -71.86289 3958 ft 139 kts 171°
2026-04-25 00:42 42.07984 -71.86031 3767 ft 139 kts 172°
2026-04-25 00:42 42.07024 -71.85914 3596 ft 138 kts 180°
2026-04-25 00:43 42.06069 -71.85854 3432 ft 137 kts 181°
2026-04-25 00:43 42.05153 -71.85806 3514 ft 127 kts 181°
2026-04-25 00:43 42.04267 -71.85753 3549 ft 126 kts 182°
2026-04-25 00:43 42.03383 -71.85712 3559 ft 128 kts 177°
2026-04-25 00:44 42.02486 -71.85602 3560 ft 130 kts 178°
2026-04-25 00:44 42.01588 -71.85508 3586 ft 129 kts 179°
2026-04-25 00:44 42.00690 -71.85354 3600 ft 132 kts 171°
2026-04-25 00:44 41.99795 -71.85063 3565 ft 133 kts 172°
2026-04-25 00:45 41.98903 -71.84829 3584 ft 132 kts 171°
2026-04-25 00:45 41.97994 -71.84664 3573 ft 132 kts 181°
2026-04-25 00:45 41.97080 -71.84726 3629 ft 130 kts 188°
2026-04-25 00:45 41.96177 -71.84793 3636 ft 131 kts 183°
2026-04-25 00:46 41.95263 -71.84726 3629 ft 132 kts 176°
2026-04-25 00:46 41.94429 -71.84222 3579 ft 136 kts 133°
2026-04-25 00:46 41.94370 -71.81786 3567 ft 141 kts 74°
2026-04-25 00:47 41.94636 -71.80512 3543 ft 142 kts 73°
2026-04-25 00:47 41.94890 -71.79248 3538 ft 141 kts 75°
2026-04-25 00:47 41.95114 -71.77958 3489 ft 143 kts 77°
2026-04-25 00:47 41.95330 -71.76660 3487 ft 142 kts 76°
2026-04-25 00:48 41.95574 -71.75382 3502 ft 138 kts 78°
2026-04-25 00:48 41.95743 -71.74128 3565 ft 135 kts 79°
2026-04-25 00:48 41.95917 -71.72892 3600 ft 134 kts 78°
2026-04-25 00:48 41.96098 -71.71663 3624 ft 135 kts 79°
2026-04-25 00:49 41.96248 -71.70416 3631 ft 137 kts 82°
2026-04-25 00:49 41.96373 -71.69132 3612 ft 140 kts 82°
2026-04-25 00:49 41.96469 -71.67819 3574 ft 142 kts 84°
2026-04-25 00:49 41.96560 -71.66496 3579 ft 142 kts 84°
2026-04-25 00:50 41.96658 -71.65197 3564 ft 142 kts 84°
2026-04-25 00:50 41.96739 -71.63868 3548 ft 143 kts 85°
2026-04-25 00:50 41.96809 -71.62537 3529 ft 143 kts 86°
2026-04-25 00:50 41.96858 -71.61211 3528 ft 141 kts 89°
2026-04-25 00:51 41.96861 -71.59897 3517 ft 142 kts 91°
2026-04-25 00:51 41.96809 -71.58588 3549 ft 139 kts 94°
2026-04-25 00:51 41.96735 -71.57288 3548 ft 139 kts 96°
2026-04-25 00:51 41.96616 -71.55995 3541 ft 140 kts 98°
2026-04-25 00:52 41.96488 -71.54699 3536 ft 140 kts 97°
2026-04-25 00:52 41.96375 -71.53402 3541 ft 139 kts 97°
2026-04-25 00:52 41.96268 -71.52103 3541 ft 140 kts 96°
2026-04-25 00:52 41.96175 -71.50801 3562 ft 140 kts 96°
2026-04-25 00:53 41.96056 -71.49499 3559 ft 141 kts 97°
2026-04-25 00:53 41.95929 -71.48202 3574 ft 140 kts 97°
2026-04-25 00:53 41.95822 -71.46922 3562 ft 140 kts 96°
2026-04-25 00:53 41.95728 -71.45618 3566 ft 140 kts 96°
2026-04-25 00:54 41.95637 -71.44318 3558 ft 140 kts 95°
2026-04-25 00:54 41.95560 -71.43013 3556 ft 140 kts 94°
2026-04-25 00:54 41.95485 -71.41706 3576 ft 140 kts 96°
2026-04-25 00:54 41.95381 -71.40407 3587 ft 140 kts 97°
2026-04-25 00:55 41.95284 -71.39102 3598 ft 143 kts 95°
2026-04-25 00:55 41.95198 -71.37759 3569 ft 144 kts 95°
2026-04-25 00:55 41.95107 -71.36417 3567 ft 144 kts 96°
2026-04-25 00:55 41.95009 -71.35094 3557 ft 144 kts 96°
2026-04-25 00:56 41.94909 -71.33754 3569 ft 144 kts 95°
2026-04-25 00:56 41.94817 -71.32411 3565 ft 144 kts 97°
2026-04-25 00:56 41.94715 -71.31070 3550 ft 144 kts 95°
2026-04-25 00:56 41.94646 -71.29728 3554 ft 144 kts 94°
2026-04-25 00:57 41.94592 -71.28838 3553 ft 144 kts 95°
2026-04-25 00:57 41.94523 -71.27492 3576 ft 144 kts 93°
2026-04-25 00:57 41.94474 -71.26147 3572 ft 144 kts 94°
2026-04-25 00:57 41.94418 -71.24803 3565 ft 144 kts 92°
2026-04-25 00:58 41.94374 -71.23455 3560 ft 144 kts 94°
2026-04-25 00:58 41.94295 -71.22113 3550 ft 144 kts 95°
2026-04-25 00:58 41.94200 -71.20775 3538 ft 144 kts 96°
2026-04-25 00:58 41.94108 -71.19435 3542 ft 143 kts 95°
2026-04-25 00:59 41.94035 -71.18101 3535 ft 143 kts 94°
2026-04-25 00:59 41.93965 -71.16793 3561 ft 142 kts 94°
2026-04-25 00:59 41.93908 -71.15468 3550 ft 143 kts 92°
2026-04-25 00:59 41.93865 -71.14138 3564 ft 142 kts 93°
2026-04-25 01:00 41.93818 -71.12810 3574 ft 143 kts 92°
2026-04-25 01:00 41.93770 -71.11478 3581 ft 142 kts 94°
2026-04-25 01:00 41.93718 -71.10150 3582 ft 142 kts 92°
2026-04-25 01:00 41.93703 -71.08820 3585 ft 143 kts 92°
2026-04-25 01:01 41.93617 -71.07495 3609 ft 143 kts 99°
2026-04-25 01:01 41.93448 -71.06181 3614 ft 143 kts 101°
2026-04-25 01:01 41.93258 -71.04856 3581 ft 145 kts 101°
2026-04-25 01:01 41.93096 -71.03523 3594 ft 143 kts 99°
2026-04-25 01:02 41.92945 -71.02197 3576 ft 145 kts 98°
2026-04-25 01:02 41.92822 -71.00857 3566 ft 144 kts 97°
2026-04-25 01:02 41.92716 -70.99521 3558 ft 144 kts 95°
2026-04-25 01:02 41.92641 -70.98195 3542 ft 144 kts 94°
2026-04-25 01:03 41.92591 -70.96851 3542 ft 144 kts 93°
2026-04-25 01:03 41.92519 -70.95509 3544 ft 143 kts 96°
2026-04-25 01:03 41.92416 -70.94174 3524 ft 144 kts 96°
2026-04-25 01:03 41.92310 -70.92834 3515 ft 144 kts 94°
2026-04-25 01:04 41.92364 -70.91488 3497 ft 145 kts 81°
2026-04-25 01:04 41.92544 -70.90168 3459 ft 144 kts 78°
2026-04-25 01:04 41.92759 -70.88850 3401 ft 144 kts 77°
2026-04-25 01:04 41.92960 -70.87537 3382 ft 143 kts 79°
2026-04-25 01:05 41.93052 -70.86198 3324 ft 145 kts 88°
2026-04-25 01:05 41.93146 -70.84862 3292 ft 142 kts 82°
2026-04-25 01:05 41.93270 -70.83577 3197 ft 134 kts 82°
2026-04-25 01:05 41.93412 -70.82366 3058 ft 131 kts 80°
2026-04-25 01:06 41.93531 -70.81163 2895 ft 129 kts 85°
2026-04-25 01:06 41.93582 -70.79952 2668 ft 133 kts 88°
2026-04-25 01:06 41.93581 -70.78748 2562 ft 126 kts 93°
2026-04-25 01:06 41.93429 -70.77569 2329 ft 131 kts 110°
2026-04-25 01:07 41.93036 -70.76455 2126 ft 130 kts 121°
2026-04-25 01:07 41.92564 -70.75423 1998 ft 127 kts 126°
2026-04-25 01:07 41.92049 -70.74464 2009 ft 127 kts 129°
2026-04-25 01:07 41.91503 -70.73525 1992 ft 127 kts 130°
2026-04-25 01:08 41.90947 -70.72600 2005 ft 127 kts 131°
2026-04-25 01:08 41.90387 -70.71678 2013 ft 128 kts 130°
2026-04-25 01:08 41.89834 -70.70748 2029 ft 127 kts 131°
2026-04-25 01:08 41.89270 -70.69839 2026 ft 125 kts 133°
2026-04-25 01:09 41.88609 -70.69241 2117 ft 109 kts 172°
2026-04-25 01:09 41.87936 -70.69453 2135 ft 100 kts 223°
2026-04-25 01:09 41.87582 -70.70271 2013 ft 103 kts 259°
2026-04-25 01:09 41.87641 -70.71229 1872 ft 106 kts 288°
2026-04-25 01:10 41.88015 -70.72134 1554 ft 116 kts 308°
2026-04-25 01:10 41.88671 -70.72720 1334 ft 115 kts 340°
2026-04-25 01:10 41.89456 -70.72595 1254 ft 118 kts 27°
2026-04-25 01:10 41.90072 -70.71823 1193 ft 128 kts 42°
2026-04-25 01:11 41.90697 -70.70994 1230 ft 120 kts 42°
2026-04-25 01:11 41.91213 -70.70295 1223 ft 93 kts 43°
2026-04-25 01:11 41.91661 -70.69732 1182 ft 84 kts 27°
2026-04-25 01:11 41.92210 -70.69591 1098 ft 82 kts 344°
2026-04-25 01:12 41.92712 -70.69911 992 ft 76 kts 320°
2026-04-25 01:12 41.93011 -70.70430 894 ft 70 kts 283°
2026-04-25 01:12 41.92933 -70.71034 797 ft 68 kts 224°
2026-04-25 01:12 41.92513 -70.71365 698 ft 70 kts 216°
2026-04-25 01:13 41.92126 -70.71765 584 ft 72 kts 225°
2026-04-25 01:13 41.91752 -70.72195 385 ft 70 kts 222°
2026-04-25 01:13 41.91386 -70.72593 185 ft 64 kts 222°
2026-04-25 01:13 41.91099 -70.72903 142 ft 39 kts 221°
2026-04-25 01:14 41.91041 -70.73000 141 ft 7 kts 281°
2026-04-25 01:14 41.91065 -70.73046 142 ft 5 kts 314°
2026-04-25 01:14 41.91079 -70.73068 141 ft 0 kts 307°
2026-04-25 01:15 41.91090 -70.73079 141 ft 4 kts 325°
2026-04-25 01:15 41.91105 -70.73090 142 ft 4 kts 356°
2026-04-25 01:15 41.91114 -70.73085 142 ft 0 kts 101°
2026-04-25 01:15 41.91111 -70.73081 142 ft 0 kts 130°
2026-04-25 01:17 41.91112 -70.73081 142 ft 1 kts 130°
2026-04-25 01:17 41.91113 -70.73083 142 ft 0 kts 152°